FW6434 Weather Reports


Display with metric or nautical units.
time (UTC)temp
F
wind
direction
speed
MPH
gust
MPH
rain 1hr
in
rain 24hr
in
rain mn
in
humidity
%
barometer
mb
20260505001910 59 164 0.0 1.0 0.00 0.00 0.00 53 1011.2
20260505001807 59 167 0.0 1.0 0.00 0.00 0.00 53 1011.7
20260505001715 59 163 0.0 1.0 0.00 0.00 0.00 53 1011.5
20260505001705 59 169 0.0 1.0 0.00 0.00 0.00 53 1011.5
20260505001606 59 168 0.0 1.0 0.00 0.00 0.00 53 1011.6
20260505001527 59 169 0.0 1.0 0.00 0.00 0.00 53 1011.6
20260505001519 59 165 0.0 0.0 0.00 0.00 0.00 53 1011.5
20260505001503 59 169 0.0 0.0 0.00 0.00 0.00 53 1011.6
20260505001445 59 168 0.0 0.0 0.00 0.00 0.00 53 1011.6
20260505001431 59 161 0.0 0.0 0.00 0.00 0.00 53 1011.6
20260505001421 59 164 0.0 0.0 0.00 0.00 0.00 53 1011.6
20260505001406 59 162 0.0 1.0 0.00 0.00 0.00 53 1011.6
20260505001350 59 169 0.0 1.0 0.00 0.00 0.00 53 1011.6
20260505001335 59 172 0.0 1.0 0.00 0.00 0.00 53 1011.7
20260505001318 59 170 0.0 1.0 0.00 0.00 0.00 53 1011.7
20260505001304 59 169 0.0 1.0 0.00 0.00 0.00 53 1011.6
20260505001255 59 165 0.0 1.0 0.00 0.00 0.00 53 1011.6
20260505000758 59 167 0.0 1.0 0.00 0.00 0.00 53 1011.6
20260505000308 59 167 0.0 1.0 0.00 0.00 0.00 52 1011.8
20260505000032 59 174 0.0 0.0 0.00 0.00 0.00 53 1011.7
20260505000013 59 175 0.0 0.0 0.00 0.00 0.00 53 1011.7
20260504235950 59 175 0.0 0.0 0.00 0.00 0.00 53 1011.6
20260504235436 59 175 0.0 0.0 0.00 0.00 0.00 53 1011.6
20260504235158 59 174 0.0 0.0 0.00 0.00 0.00 53 1011.7
20260504235054 60 170 0.0 1.0 0.00 0.00 0.00 52 1012.1
20260504235050 61 192 0.0 0.0 0.00 0.00 0.00 52 1011.8
20260504235042 60 168 0.0 0.0 0.00 0.00 0.00 52 1011.8
20260504234808 60 168 0.0 1.0 0.00 0.00 0.00 52 1011.8
20260504234753 60 179 0.0 1.0 0.00 0.00 0.00 52 1011.9
20260504234525 60 170 0.0 1.0 0.00 0.00 0.00 52 1012.1
20260504234506 60 167 0.0 1.0 0.00 0.00 0.00 52 1012.0
20260504234449 60 167 0.0 1.0 0.00 0.00 0.00 52 1011.9
20260504234433 60 174 0.0 1.0 0.00 0.00 0.00 52 1011.8
20260504234418 60 168 0.0 1.0 0.00 0.00 0.00 51 1012.0
20260504234354 60 169 0.0 1.0 0.00 0.00 0.00 51 1011.7
20260504234339 60 168 0.0 1.0 0.00 0.00 0.00 51 1011.9
20260504233625 60 187 0.0 0.0 0.00 0.00 0.00 50 1011.9
20260504233354 60 185 0.0 0.0 0.00 0.00 0.00 53 1011.9
20260504233338 60 192 0.0 0.0 0.00 0.00 0.00 50 1011.8
20260504233323 61 192 0.0 0.0 0.00 0.00 0.00 52 1012.2
20260504233306 61 192 0.0 0.0 0.00 0.00 0.00 50 1011.8
20260504232734 61 192 0.0 1.0 0.00 0.00 0.00 50 1011.9
20260504232634 61 192 0.0 1.0 0.00 0.00 0.00 50 1011.7
20260504232533 61 196 0.0 1.0 0.00 0.00 0.00 50 1011.9
20260504232439 61 198 0.0 1.0 0.00 0.00 0.00 50 1012.0
20260504232425 61 201 0.0 1.0 0.00 0.00 0.00 50 1012.0
20260504232417 61 225 0.0 1.0 0.00 0.00 0.00 50 1011.9
20260504232358 62 225 0.0 1.0 0.00 0.00 0.00 50 1011.8
20260504232122 62 196 0.0 1.0 0.00 0.00 0.00 49 1012.0
20260504232107 62 201 0.0 1.0 0.00 0.00 0.00 49 1011.8
20260504232052 62 212 1.0 1.0 0.00 0.00 0.00 49 1011.8
20260504231736 62 198 0.0 1.0 0.00 0.00 0.00 49 1012.0
20260504231633 62 198 0.0 1.0 0.00 0.00 0.00 49 1011.8
20260504231534 62 203 0.0 1.0 0.00 0.00 0.00 48 1011.8
20260504231434 62 209 1.0 1.0 0.00 0.00 0.00 48 1011.9
20260504231329 62 202 0.0 3.0 0.00 0.00 0.00 48 1011.9
20260504231231 62 199 0.0 3.0 0.00 0.00 0.00 48 1011.9
20260504231129 62 205 1.0 3.0 0.00 0.00 0.00 48 1011.9
20260504231113 62 198 0.0 3.0 0.00 0.00 0.00 49 1012.2
20260504231056 62 200 0.0 3.0 0.00 0.00 0.00 48 1011.9
20260504231042 62 202 0.0 3.0 0.00 0.00 0.00 48 1011.9
20260504230730 62 206 0.0 3.0 0.00 0.00 0.00 48 1012.1
20260504230628 62 212 1.0 3.0 0.00 0.00 0.00 48 1012.0
20260504230608 62 201 0.0 3.0 0.00 0.00 0.00 48 1012.0
20260504230552 62 222 2.0 4.0 0.00 0.00 0.00 47 1012.1
20260504230538 62 205 0.0 4.0 0.00 0.00 0.00 47 1012.1
20260504230224 62 206 0.0 4.0 0.00 0.00 0.00 47 1011.9
20260504230125 63 203 0.0 4.0 0.00 0.00 0.00 48 1012.0
20260504230024 63 208 0.0 4.0 0.00 0.00 0.00 47 1012.3
20260504230007 63 205 1.0 4.0 0.00 0.00 0.00 47 1012.0
20260504225952 63 198 0.0 4.0 0.00 0.00 0.00 47 1012.0
20260504225944 63 207 0.0 4.0 0.00 0.00 0.00 47 1012.0
20260504225624 63 199 0.0 4.0 0.00 0.00 0.00 47 1012.1
20260504225525 63 206 1.0 4.0 0.00 0.00 0.00 46 1012.2
20260504225508 63 208 1.0 3.0 0.00 0.00 0.00 46 1012.1
20260504225454 63 205 0.0 3.0 0.00 0.00 0.00 47 1012.1
20260504225445 63 206 1.0 3.0 0.00 0.00 0.00 46 1012.0
20260504225125 63 210 0.0 3.0 0.00 0.00 0.00 46 1012.2
20260504225024 63 205 0.0 3.0 0.00 0.00 0.00 47 1012.2
20260504224925 63 213 1.0 3.0 0.00 0.00 0.00 46 1012.2
20260504224911 63 208 0.0 3.0 0.00 0.00 0.00 46 1012.2
20260504224903 63 206 0.0 3.0 0.00 0.00 0.00 47 1012.3
20260504224846 63 201 0.0 3.0 0.00 0.00 0.00 47 1012.5
20260504224525 63 198 0.0 3.0 0.00 0.00 0.00 47 1012.1
20260504224424 63 207 2.0 3.0 0.00 0.00 0.00 46 1012.2
20260504224344 63 207 0.0 2.0 0.00 0.00 0.00 47 1012.2
20260504224325 63 206 0.0 2.0 0.00 0.00 0.00 47 1012.1
20260504224223 63 207 0.0 2.0 0.00 0.00 0.00 47 1012.3
20260504224212 63 218 1.0 4.0 0.00 0.00 0.00 45 1012.2
20260504224203 63 201 0.0 2.0 0.00 0.00 0.00 47 1012.2
20260504224147 63 204 0.0 3.0 0.00 0.00 0.00 47 1012.4
20260504224132 63 202 0.0 3.0 0.00 0.00 0.00 46 1012.2
20260504224117 63 198 0.0 3.0 0.00 0.00 0.00 46 1012.2
20260504224110 63 202 1.0 3.0 0.00 0.00 0.00 46 1012.0
20260504224055 63 165 0.0 3.0 0.00 0.00 0.00 46 1012.4
20260504224040 63 214 0.0 3.0 0.00 0.00 0.00 46 1012.5
20260504224023 63 205 0.0 3.0 0.00 0.00 0.00 47 1012.1
20260504223750 63 201 0.0 3.0 0.00 0.00 0.00 46 1012.3
20260504223741 63 202 0.0 3.0 0.00 0.00 0.00 46 1012.3
20260504223242 63 204 0.0 4.0 0.00 0.00 0.00 46 1012.3
20260504223225 63 229 3.0 4.0 0.00 0.00 0.00 45 1012.3
20260504222653 63 225 1.0 4.0 0.00 0.00 0.00 45 1012.5
20260504222555 63 203 0.0 6.0 0.00 0.00 0.00 46 1012.4
20260504222454 63 216 1.0 6.0 0.00 0.00 0.00 45 1012.2
20260504222340 63 203 0.0 6.0 0.00 0.00 0.00 45 1012.5
20260504222325 63 212 1.0 6.0 0.00 0.00 0.00 45 1012.3
20260504222234 63 211 1.0 6.0 0.00 0.00 0.00 46 1012.2
20260504222124 63 222 3.0 6.0 0.00 0.00 0.00 46 1012.4
20260504222025 63 224 1.0 6.0 0.00 0.00 0.00 46 1012.2
20260504221924 63 216 1.0 6.0 0.00 0.00 0.00 46 1012.4
20260504221825 63 220 1.0 6.0 0.00 0.00 0.00 46 1012.5
20260504221724 63 243 2.0 6.0 0.00 0.00 0.00 46 1012.5
20260504221624 63 239 4.0 6.0 0.00 0.00 0.00 46 1012.3
20260504221523 63 223 1.0 6.0 0.00 0.00 0.00 46 1012.3
20260504221418 63 217 1.0 6.0 0.00 0.00 0.00 47 1012.2
20260504221318 63 233 3.0 6.0 0.00 0.00 0.00 47 1012.6
20260504221217 63 229 2.0 6.0 0.00 0.00 0.00 47 1012.3
20260504221127 63 230 4.0 6.0 0.00 0.00 0.00 47 1012.3
20260504221112 63 211 0.0 6.0 0.00 0.00 0.00 47 1012.2
20260504221056 63 209 1.0 6.0 0.00 0.00 0.00 47 1012.3
20260504220830 63 229 3.0 6.0 0.00 0.00 0.00 47 1012.3
20260504220718 63 227 2.0 4.0 0.00 0.00 0.00 48 1012.2
20260504220617 63 213 2.0 4.0 0.00 0.00 0.00 48 1012.4
20260504220512 63 225 4.0 4.0 0.00 0.00 0.00 48 1012.3
20260504220412 63 213 2.0 4.0 0.00 0.00 0.00 48 1012.5
20260504220312 63 211 0.0 4.0 0.00 0.00 0.00 48 1012.4
20260504220212 63 205 0.0 4.0 0.00 0.00 0.00 48 1012.3
20260504220112 63 222 1.0 4.0 0.00 0.00 0.00 48 1012.5
20260504220013 63 214 1.0 4.0 0.00 0.00 0.00 48 1012.5
20260504215912 63 210 1.0 4.0 0.00 0.00 0.00 48 1012.4
20260504215812 63 204 1.0 4.0 0.00 0.00 0.00 48 1012.2
20260504215748 63 235 3.0 3.0 0.00 0.00 0.00 47 1012.4
20260504215731 63 224 3.0 3.0 0.00 0.00 0.00 47 1012.4
20260504215410 63 210 2.0 3.0 0.00 0.00 0.00 47 1012.4
20260504215311 63 209 1.0 2.0 0.00 0.00 0.00 48 1012.4
20260504215210 63 211 1.0 2.0 0.00 0.00 0.00 48 1012.3
20260504215136 64 201 0.0 1.0 0.00 0.00 0.00 47 1012.5
20260504215130 63 214 1.0 2.0 0.00 0.00 0.00 48 1012.3
20260504215114 63 194 0.0 1.0 0.00 0.00 0.00 48 1012.3
20260504215059 63 195 0.0 1.0 0.00 0.00 0.00 48 1012.2
20260504214832 64 196 0.0 1.0 0.00 0.00 0.00 48 1012.4
20260504214818 64 196 0.0 1.0 0.00 0.00 0.00 47 1012.3
20260504214802 64 196 0.0 1.0 0.00 0.00 0.00 47 1012.3
20260504214746 64 198 0.0 1.0 0.00 0.00 0.00 47 1012.5
20260504214731 64 191 0.0 1.0 0.00 0.00 0.00 46 1012.4
20260504214231 64 203 0.0 1.0 0.00 0.00 0.00 47 1012.6
20260504214214 64 202 0.0 1.0 0.00 0.00 0.00 47 1012.2
20260504213854 64 215 0.0 1.0 0.00 0.00 0.00 46 1012.4
20260504213754 64 199 0.0 1.0 0.00 0.00 0.00 47 1012.4
20260504213654 64 201 0.0 2.0 0.00 0.00 0.00 47 1012.4
20260504213628 64 204 0.0 4.0 0.00 0.00 0.00 47 1012.4
20260504213612 64 201 0.0 4.0 0.00 0.00 0.00 47 1012.5
20260504213252 64 201 0.0 4.0 0.00 0.00 0.00 47 1012.3
20260504213225 64 202 0.0 4.0 0.00 0.00 0.00 47 1012.5
20260504213208 64 207 0.0 4.0 0.00 0.00 0.00 47 1012.3
20260504212848 64 208 1.0 4.0 0.00 0.00 0.00 46 1012.5
20260504212747 64 202 1.0 4.0 0.00 0.00 0.00 46 1012.6
20260504212647 64 213 3.0 4.0 0.00 0.00 0.00 46 1012.4
20260504212548 64 220 1.0 3.0 0.00 0.00 0.00 47 1012.3
20260504212448 64 215 2.0 3.0 0.00 0.00 0.00 47 1012.2
20260504212347 64 199 0.0 3.0 0.00 0.00 0.00 47 1012.4
20260504212307 64 210 1.0 4.0 0.00 0.00 0.00 47 1012.4
20260504212224 64 204 0.0 4.0 0.00 0.00 0.00 48 1012.3
20260504212208 64 217 2.0 4.0 0.00 0.00 0.00 48 1012.4
20260504211858 64 219 2.0 3.0 0.00 0.00 0.00 48 1012.5
20260504211853 64 204 0.0 4.0 0.00 0.00 0.00 48 1012.5
20260504211831 64 211 0.0 4.0 0.00 0.00 0.00 48 1012.4
20260504211814 64 205 0.0 4.0 0.00 0.00 0.00 48 1012.3
20260504211538 64 203 0.0 4.0 0.00 0.00 0.00 48 1012.3
20260504211522 64 210 2.0 4.0 0.00 0.00 0.00 48 1012.4
20260504211504 64 219 2.0 3.0 0.00 0.00 0.00 48 1012.5
20260504211141 64 205 0.0 3.0 0.00 0.00 0.00 48 1012.3
20260504211046 64 194 0.0 4.0 0.00 0.00 0.00 49 1012.3
20260504210943 64 226 0.0 4.0 0.00 0.00 0.00 49 1012.5
20260504210842 64 209 1.0 4.0 0.00 0.00 0.00 48 1012.2
20260504210741 64 209 0.0 4.0 0.00 0.00 0.00 48 1012.4
20260504210717 64 212 0.0 4.0 0.00 0.00 0.00 48 1012.3
20260504210702 64 214 1.0 4.0 0.00 0.00 0.00 48 1012.4
20260504210340 65 203 0.0 6.0 0.00 0.00 0.00 48 1012.5
20260504210314 65 196 0.0 6.0 0.00 0.00 0.00 48 1012.5
20260504210257 65 211 1.0 6.0 0.00 0.00 0.00 48 1012.4
20260504205938 65 210 0.0 6.0 0.00 0.00 0.00 48 1012.4
20260504205921 65 218 0.0 6.0 0.00 0.00 0.00 48 1012.6
20260504205859 65 228 1.0 6.0 0.00 0.00 0.00 47 1012.6
20260504205536 65 216 3.0 6.0 0.00 0.00 0.00 47 1012.4
20260504205437 65 198 0.0 4.0 0.00 0.00 0.00 48 1012.3
20260504205335 65 211 3.0 4.0 0.00 0.00 0.00 47 1012.4
20260504205236 65 218 1.0 3.0 0.00 0.00 0.00 48 1012.4
20260504205211 65 222 0.0 3.0 0.00 0.00 0.00 48 1012.4
20260504205155 65 210 0.0 3.0 0.00 0.00 0.00 48 1012.4
20260504204834 65 200 0.0 3.0 0.00 0.00 0.00 47 1012.5
20260504204734 66 203 0.0 3.0 0.00 0.00 0.00 47 1012.4
20260504204708 66 220 2.0 3.0 0.00 0.00 0.00 47 1012.5
20260504204651 66 223 1.0 3.0 0.00 0.00 0.00 47 1012.6
20260504204330 66 205 2.0 3.0 0.00 0.00 0.00 47 1012.5
20260504204240 66 215 3.0 3.0 0.00 0.00 0.00 47 1012.5
20260504204223 66 204 1.0 4.0 0.00 0.00 0.00 47 1012.4
20260504204207 66 225 2.0 4.0 0.00 0.00 0.00 46 1012.3
20260504204151 66 200 0.0 4.0 0.00 0.00 0.00 47 1012.5
20260504204136 66 221 2.0 6.0 0.00 0.00 0.00 46 1012.6
20260504204114 66 193 2.0 6.0 0.00 0.00 0.00 46 1012.4
20260504204058 66 220 1.0 6.0 0.00 0.00 0.00 47 1012.2
20260504204044 66 211 0.0 6.0 0.00 0.00 0.00 47 1012.4
20260504203807 66 229 0.0 6.0 0.00 0.00 0.00 47 1012.3
20260504203744 66 203 3.0 6.0 0.00 0.00 0.00 46 1012.5
20260504203244 66 228 4.0 6.0 0.00 0.00 0.00 47 1012.5
20260504203002 66 217 2.0 8.0 0.00 0.00 0.00 47 1012.4
20260504202944 66 207 1.0 8.0 0.00 0.00 0.00 47 1012.4
20260504202709 66 217 2.0 8.0 0.00 0.00 0.00 47 1012.3
20260504202217 66 210 1.0 8.0 0.00 0.00 0.00 47 1012.4
20260504202117 66 215 3.0 8.0 0.00 0.00 0.00 48 1012.4
20260504202047 66 219 3.0 8.0 0.00 0.00 0.00 48 1012.4
20260504202030 66 237 2.0 8.0 0.00 0.00 0.00 48 1012.4
20260504202014 66 210 2.0 8.0 0.00 0.00 0.00 48 1012.2
20260504201951 66 221 3.0 7.0 0.00 0.00 0.00 49 1012.3
20260504201412 66 205 1.0 4.0 0.00 0.00 0.00 49 1012.3
20260504201314 66 241 2.0 4.0 0.00 0.00 0.00 50 1012.4
20260504201213 66 206 1.0 4.0 0.00 0.00 0.00 49 1012.3
20260504201110 66 192 0.0 4.0 0.00 0.00 0.00 50 1012.3
20260504201010 66 207 2.0 4.0 0.00 0.00 0.00 50 1012.3
20260504200910 66 187 0.0 4.0 0.00 0.00 0.00 50 1012.3
20260504200810 66 215 1.0 4.0 0.00 0.00 0.00 50 1012.3
20260504200711 66 237 1.0 4.0 0.00 0.00 0.00 50 1012.3
20260504200610 66 191 0.0 4.0 0.00 0.00 0.00 50 1012.3
20260504200554 66 218 1.0 3.0 0.00 0.00 0.00 51 1012.3
20260504200546 66 223 3.0 4.0 0.00 0.00 0.00 50 1012.4
20260504200525 66 213 3.0 4.0 0.00 0.00 0.00 51 1012.4
20260504200510 66 221 0.0 3.0 0.00 0.00 0.00 51 1012.2
20260504200452 66 218 1.0 3.0 0.00 0.00 0.00 51 1012.3
20260504200225 66 215 0.0 3.0 0.00 0.00 0.00 51 1012.2
20260504195904 66 203 0.0 4.0 0.00 0.00 0.00 52 1012.3
20260504195759 66 221 1.0 4.0 0.00 0.00 0.00 52 1012.3
20260504195658 66 217 0.0 4.0 0.00 0.00 0.00 52 1012.3
20260504195653 66 200 0.0 4.0 0.00 0.00 0.00 52 1012.3
20260504195542 67 201 0.0 4.0 0.00 0.00 0.00 52 1012.2
20260504195443 67 204 0.0 4.0 0.00 0.00 0.00 52 1012.3
20260504195427 67 224 2.0 4.0 0.00 0.00 0.00 52 1012.2
20260504195411 67 204 1.0 4.0 0.00 0.00 0.00 51 1012.4
20260504195356 67 209 1.0 4.0 0.00 0.00 0.00 52 1012.6
20260504195042 67 225 1.0 4.0 0.00 0.00 0.00 51 1012.3
20260504194940 67 202 0.0 3.0 0.00 0.00 0.00 52 1012.3
20260504194840 67 222 2.0 3.0 0.00 0.00 0.00 52 1012.2
20260504194732 67 221 2.0 3.0 0.00 0.00 0.00 52 1012.1
20260504194650 67 212 1.0 3.0 0.00 0.00 0.00 52 1012.1
20260504194630 67 225 1.0 3.0 0.00 0.00 0.00 52 1012.3
20260504194530 67 224 3.0 3.0 0.00 0.00 0.00 52 1012.1
20260504194430 67 222 1.0 3.0 0.00 0.00 0.00 52 1012.3
20260504194328 67 216 2.0 3.0 0.00 0.00 0.00 52 1012.5
20260504194303 67 207 0.0 4.0 0.00 0.00 0.00 52 1012.6
20260504194248 67 215 2.0 4.0 0.00 0.00 0.00 51 1012.6
20260504194124 67 211 2.0 4.0 0.00 0.00 0.00 51 1012.3
20260504194022 67 208 0.0 4.0 0.00 0.00 0.00 51 1012.4
20260504193914 67 234 2.0 4.0 0.00 0.00 0.00 51 1012.1
20260504193806 67 220 2.0 4.0 0.00 0.00 0.00 51 1012.3
20260504193636 67 217 2.0 4.0 0.00 0.00 0.00 51 1012.3
20260504193552 67 215 2.0 4.0 0.00 0.00 0.00 51 1012.4
20260504193453 68 221 2.0 4.0 0.00 0.00 0.00 51 1012.2
20260504193348 68 227 2.0 4.0 0.00 0.00 0.00 51 1012.2
20260504193247 68 230 2.0 3.0 0.00 0.00 0.00 51 1012.1
20260504193146 68 228 3.0 3.0 0.00 0.00 0.00 51 1012.1
20260504193130 68 221 2.0 3.0 0.00 0.00 0.00 51 1012.3
20260504193047 67 209 1.0 3.0 0.00 0.00 0.00 51 1012.3
20260504192947 67 227 2.0 3.0 0.00 0.00 0.00 51 1012.2
20260504192847 67 220 1.0 3.0 0.00 0.00 0.00 51 1012.2
20260504192746 67 211 1.0 3.0 0.00 0.00 0.00 51 1012.4
20260504192648 67 224 0.0 3.0 0.00 0.00 0.00 51 1012.4
20260504192632 67 224 0.0 3.0 0.00 0.00 0.00 51 1012.1
20260504192622 68 199 0.0 3.0 0.00 0.00 0.00 51 1012.1
20260504192606 68 201 0.0 3.0 0.00 0.00 0.00 51 1012.2
20260504192308 68 200 0.0 3.0 0.00 0.00 0.00 51 1012.0
20260504192251 68 205 0.0 3.0 0.00 0.00 0.00 51 1012.0
20260504192240 68 211 0.0 3.0 0.00 0.00 0.00 51 1012.0
20260504192227 68 211 1.0 3.0 0.00 0.00 0.00 50 1012.2
20260504192212 68 208 0.0 3.0 0.00 0.00 0.00 50 1012.1
20260504191630 68 211 0.0 2.0 0.00 0.00 0.00 51 1012.0
20260504191531 68 211 1.0 2.0 0.00 0.00 0.00 51 1012.2
20260504191504 67 188 0.0 0.0 0.00 0.00 0.00 54 1012.4
20260504191459 67 186 0.0 1.0 0.00 0.00 0.00 54 1012.1
20260504191451 68 210 0.0 2.0 0.00 0.00 0.00 50 1012.1
20260504191435 68 210 0.0 2.0 0.00 0.00 0.00 50 1012.2
20260504191418 68 220 1.0 2.0 0.00 0.00 0.00 50 1012.2
20260504191151 68 204 0.0 2.0 0.00 0.00 0.00 51 1012.1
20260504191132 67 211 0.0 2.0 0.00 0.00 0.00 51 1012.0
20260504191116 67 213 1.0 2.0 0.00 0.00 0.00 51 1012.2
20260504190838 67 203 0.0 1.0 0.00 0.00 0.00 52 1012.4
20260504190815 67 198 0.0 1.0 0.00 0.00 0.00 52 1012.4
20260504190759 67 196 0.0 1.0 0.00 0.00 0.00 52 1012.3
20260504190743 67 198 0.0 1.0 0.00 0.00 0.00 52 1012.1
20260504190727 67 191 0.0 0.0 0.00 0.00 0.00 53 1012.2
20260504190711 67 188 0.0 0.0 0.00 0.00 0.00 54 1012.3
20260504190649 67 188 0.0 0.0 0.00 0.00 0.00 53 1012.1
20260504190412 67 188 0.0 0.0 0.00 0.00 0.00 54 1012.3
20260504190357 67 188 0.0 0.0 0.00 0.00 0.00 54 1012.1
20260504190341 67 188 0.0 0.0 0.00 0.00 0.00 54 1012.0
20260504190324 67 188 0.0 0.0 0.00 0.00 0.00 54 1012.4
20260504190046 67 188 0.0 1.0 0.00 0.00 0.00 54 1012.0
20260504185550 67 186 0.0 1.0 0.00 0.00 0.00 54 1012.0
20260504185533 67 186 0.0 1.0 0.00 0.00 0.00 54 1012.1
20260504185305 68 185 0.0 4.0 0.00 0.00 0.00 54 1012.1
20260504184724 68 190 0.0 4.0 0.00 0.00 0.00 53 1012.0
20260504184657 68 190 0.0 4.0 0.00 0.00 0.00 52 1012.2
20260504184643 68 191 0.0 4.0 0.00 0.00 0.00 52 1011.8
20260504184407 68 189 0.0 1.0 0.00 0.00 0.00 51 1011.8
20260504184358 68 189 0.0 4.0 0.00 0.00 0.00 52 1012.0
20260504184342 68 194 0.0 4.0 0.00 0.00 0.00 52 1011.9
20260504184320 68 204 4.0 4.0 0.00 0.00 0.00 50 1011.8
20260504184053 68 185 0.0 1.0 0.00 0.00 0.00 51 1011.8
20260504184037 69 190 0.0 1.0 0.00 0.00 0.00 51 1011.9
20260504184022 68 194 0.0 1.0 0.00 0.00 0.00 51 1011.9
20260504184006 68 194 0.0 1.0 0.00 0.00 0.00 52 1011.9
20260504183948 68 189 0.0 1.0 0.00 0.00 0.00 51 1011.8
20260504183722 68 194 0.0 1.0 0.00 0.00 0.00 52 1012.0
20260504183705 68 196 0.0 1.0 0.00 0.00 0.00 52 1011.8
20260504183202 68 191 0.0 0.0 0.00 0.00 0.00 51 1011.8
20260504183144 69 191 0.0 0.0 0.00 0.00 0.00 51 1012.0
20260504182824 69 191 0.0 0.0 0.00 0.00 0.00 51 1012.0
20260504182723 69 191 0.0 0.0 0.00 0.00 0.00 51 1011.9
20260504182624 69 191 0.0 0.0 0.00 0.00 0.00 51 1012.1
20260504182524 69 191 0.0 0.0 0.00 0.00 0.00 52 1011.8
20260504182501 69 191 0.0 0.0 0.00 0.00 0.00 52 1011.7
20260504182445 69 191 0.0 0.0 0.00 0.00 0.00 51 1012.0
20260504182428 69 191 0.0 0.0 0.00 0.00 0.00 51 1012.0
20260504182406 69 191 0.0 0.0 0.00 0.00 0.00 51 1011.9
20260504182347 69 191 0.0 0.0 0.00 0.00 0.00 51 1011.7
20260504182330 69 191 0.0 0.0 0.00 0.00 0.00 51 1011.8
20260504181624 69 193 0.0 1.0 0.00 0.00 0.00 51 1011.7
20260504181523 69 186 0.0 1.0 0.00 0.00 0.00 51 1012.0
20260504181423 69 188 0.0 1.0 0.00 0.00 0.00 51 1011.6
20260504181324 70 191 0.0 1.0 0.00 0.00 0.00 50 1011.8
20260504181252 70 181 0.0 1.0 0.00 0.00 0.00 51 1011.8
20260504181228 70 190 0.0 1.0 0.00 0.00 0.00 50 1011.7
20260504181211 70 190 0.0 1.0 0.00 0.00 0.00 51 1011.7
20260504181155 70 191 0.0 1.0 0.00 0.00 0.00 50 1012.0
20260504181140 70 191 0.0 1.0 0.00 0.00 0.00 50 1011.6
20260504181125 70 192 0.0 1.0 0.00 0.00 0.00 50 1011.9
20260504180857 70 191 0.0 0.0 0.00 0.00 0.00 50 1011.6
20260504180842 70 192 0.0 0.0 0.00 0.00 0.00 50 1011.8
20260504180346 70 219 0.0 0.0 0.00 0.00 0.00 50 1012.1
20260504180119 70 192 0.0 0.0 0.00 0.00 0.00 50 1011.8
20260504180018 70 191 0.0 0.0 0.00 0.00 0.00 50 1011.7
20260504175917 70 188 0.0 0.0 0.00 0.00 0.00 50 1011.8
20260504175859 71 190 0.0 0.0 0.00 0.00 0.00 50 1011.8
20260504175843 71 194 0.0 0.0 0.00 0.00 0.00 50 1011.8
20260504175617 71 198 0.0 0.0 0.00 0.00 0.00 50 1011.8
20260504175517 71 192 0.0 0.0 0.00 0.00 0.00 49 1011.9
20260504175418 71 193 0.0 0.0 0.00 0.00 0.00 49 1012.1
20260504175318 71 188 0.0 0.0 0.00 0.00 0.00 49 1012.0
20260504175219 71 188 0.0 0.0 0.00 0.00 0.00 49 1011.9
20260504175117 71 191 0.0 0.0 0.00 0.00 0.00 49 1011.8
20260504175018 71 191 0.0 0.0 0.00 0.00 0.00 49 1011.9
20260504174953 71 190 0.0 0.0 0.00 0.00 0.00 49 1011.9
20260504174936 71 189 0.0 0.0 0.00 0.00 0.00 49 1011.7
20260504174921 71 187 0.0 0.0 0.00 0.00 0.00 49 1011.6
20260504174858 71 193 0.0 0.0 0.00 0.00 0.00 48 1012.0
20260504174841 71 190 0.0 0.0 0.00 0.00 0.00 48 1011.9
20260504174345 71 186 0.0 2.0 0.00 0.00 0.00 48 1011.8
20260504174118 71 188 0.0 2.0 0.00 0.00 0.00 48 1011.8
20260504174017 71 188 0.0 2.0 0.00 0.00 0.00 48 1011.8
20260504173917 71 186 0.0 2.0 0.00 0.00 0.00 48 1011.9
20260504173816 72 186 0.0 2.0 0.00 0.00 0.00 48 1011.8
20260504173717 72 189 0.0 2.0 0.00 0.00 0.00 49 1011.8
20260504173618 72 189 0.0 2.0 0.00 0.00 0.00 48 1011.6
20260504173541 72 191 0.0 2.0 0.00 0.00 0.00 48 1011.8
20260504173524 72 204 0.0 1.0 0.00 0.00 0.00 47 1011.8
20260504173206 72 192 0.0 1.0 0.00 0.00 0.00 47 1011.9
20260504173107 72 188 0.0 1.0 0.00 0.00 0.00 48 1011.8
20260504173058 72 192 0.0 1.0 0.00 0.00 0.00 47 1011.6
20260504172920 72 196 0.0 1.0 0.00 0.00 0.00 47 1011.7
20260504172811 72 188 0.0 2.0 0.00 0.00 0.00 47 1011.4
20260504172706 72 191 0.0 2.0 0.00 0.00 0.00 47 1012.0
20260504172606 72 188 0.0 2.0 0.00 0.00 0.00 47 1011.8
20260504172541 73 182 0.0 2.0 0.00 0.00 0.00 47 1011.6
20260504172533 72 188 0.0 2.0 0.00 0.00 0.00 47 1011.7
20260504172516 72 179 0.0 2.0 0.00 0.00 0.00 47 1011.6
20260504172501 72 194 0.0 2.0 0.00 0.00 0.00 47 1011.6
20260504172445 72 188 0.0 2.0 0.00 0.00 0.00 47 1011.6
20260504172420 72 191 0.0 2.0 0.00 0.00 0.00 47 1011.6
20260504171935 72 190 0.0 2.0 0.00 0.00 0.00 47 1011.7
20260504171918 73 191 0.0 2.0 0.00 0.00 0.00 47 1011.6
20260504171903 73 176 0.0 2.0 0.00 0.00 0.00 47 1011.7
20260504171844 73 182 0.0 2.0 0.00 0.00 0.00 47 1011.6
20260504171619 73 188 0.0 2.0 0.00 0.00 0.00 47 1011.7
20260504171259 73 196 0.0 2.0 0.00 0.00 0.00 46 1011.6
20260504171158 73 173 0.0 2.0 0.00 0.00 0.00 46 1011.6
20260504171059 73 182 0.0 2.0 0.00 0.00 0.00 46 1011.6
20260504171036 73 175 1.0 2.0 0.00 0.00 0.00 46 1011.7
20260504171020 73 192 0.0 1.0 0.00 0.00 0.00 46 1011.7
20260504170654 73 188 0.0 1.0 0.00 0.00 0.00 46 1011.5
20260504170607 73 183 0.0 1.0 0.00 0.00 0.00 46 1011.5
20260504170522 74 187 0.0 4.0 0.00 0.00 0.00 46 1011.8
20260504170516 74 174 0.0 0.0 0.00 0.00 0.00 45 1011.5
20260504170510 73 184 0.0 2.0 0.00 0.00 0.00 46 1011.7
20260504170453 73 227 0.0 2.0 0.00 0.00 0.00 46 1011.4
20260504170436 73 185 0.0 2.0 0.00 0.00 0.00 46 1011.6
20260504170421 74 182 0.0 4.0 0.00 0.00 0.00 46 1011.5
20260504170402 74 187 0.0 4.0 0.00 0.00 0.00 46 1011.8
20260504170137 74 191 0.0 4.0 0.00 0.00 0.00 46 1011.5
20260504170121 74 176 0.0 4.0 0.00 0.00 0.00 46 1011.5
20260504170104 74 194 0.0 4.0 0.00 0.00 0.00 46 1011.6
20260504151146 76 238 1.0 7.0 0.00 0.00 0.00 42 1011.9
20260504150901 76 174 1.0 11.0 0.00 0.00 0.00 43 1012.1
20260504150846 76 202 1.0 11.0 0.00 0.00 0.00 42 1012.1
20260504150610 76 188 0.0 11.0 0.00 0.00 0.00 43 1011.7
20260504150524 76 184 0.0 11.0 0.00 0.00 0.00 42 1011.9
20260504150425 76 203 0.0 11.0 0.00 0.00 0.00 42 1011.9
20260504150327 76 191 1.0 11.0 0.00 0.00 0.00 42 1011.9
20260504150221 76 194 3.0 11.0 0.00 0.00 0.00 42 1012.1
20260504150121 76 132 0.0 11.0 0.00 0.00 0.00 43 1011.9
20260504150107 76 201 1.0 11.0 0.00 0.00 0.00 42 1011.9
20260504141324 78 223 0.0 4.0 0.00 0.00 0.00 42 1012.3
20260504141308 78 182 0.0 4.0 0.00 0.00 0.00 42 1012.3
20260504141301 78 194 0.0 4.0 0.00 0.00 0.00 42 1012.3
20260504141026 78 224 1.0 6.0 0.00 0.00 0.00 42 1012.3
20260504140749 78 177 0.0 6.0 0.00 0.00 0.00 43 1012.3
20260504140510 78 181 0.0 6.0 0.00 0.00 0.00 43 1012.2
20260504140409 78 75 1.0 6.0 0.00 0.00 0.00 44 1012.4
20260504140307 78 163 0.0 6.0 0.00 0.00 0.00 43 1012.4
20260504140202 78 179 0.0 6.0 0.00 0.00 0.00 43 1012.4
20260504130821 78 188 0.0 4.0 0.00 0.00 0.00 43 1012.7
20260504130804 78 186 0.0 4.0 0.00 0.00 0.00 43 1012.7
20260504130452 78 192 0.0 4.0 0.00 0.00 0.00 43 1012.8
20260504130440 78 198 2.0 4.0 0.00 0.00 0.00 43 1012.8
20260504130344 78 168 1.0 4.0 0.00 0.00 0.00 44 1012.8
20260504130244 78 199 2.0 4.0 0.00 0.00 0.00 43 1012.8
20260504130135 78 194 0.0 4.0 0.00 0.00 0.00 44 1013.0
20260504120254 75 145 1.0 10.0 0.00 0.00 0.00 43 1013.1
20260504120246 75 206 0.0 10.0 0.00 0.00 0.00 42 1013.1
20260504120230 75 196 0.0 10.0 0.00 0.00 0.00 42 1013.3
20260504120215 75 229 2.0 10.0 0.00 0.00 0.00 42 1013.1
20260504120159 75 240 5.0 10.0 0.00 0.00 0.00 42 1013.3
20260504110532 76 236 4.0 14.0 0.00 0.00 0.00 41 1013.7
20260504110421 76 215 0.0 15.0 0.00 0.00 0.00 40 1013.5
20260504110321 76 255 5.0 15.0 0.00 0.00 0.00 40 1013.5
20260504110240 76 195 0.0 15.0 0.00 0.00 0.00 40 1013.5
20260504110215 76 223 5.0 15.0 0.00 0.00 0.00 40 1013.7
20260504100510 77 113 0.0 13.0 0.00 0.00 0.00 39 1014.5
20260504081943 71 206 2.0 13.0 0.00 0.00 0.00 42 1015.0
20260504081842 71 202 8.0 13.0 0.00 0.00 0.00 42 1015.3
20260504081817 71 170 3.0 13.0 0.00 0.00 0.00 42 1015.0
20260504081802 71 203 3.0 13.0 0.00 0.00 0.00 43 1015.0
20260504081514 71 235 2.0 13.0 0.00 0.00 0.00 42 1015.0
20260504081442 71 239 4.0 13.0 0.00 0.00 0.00 43 1015.0
20260504081342 70 230 6.0 10.0 0.00 0.00 0.00 43 1015.3
20260504081243 70 204 7.0 15.0 0.00 0.00 0.00 44 1015.2
20260504081143 70 169 0.0 15.0 0.00 0.00 0.00 43 1014.8
20260504081128 71 196 5.0 15.0 0.00 0.00 0.00 42 1015.0
20260504081114 71 225 3.0 15.0 0.00 0.00 0.00 42 1015.0
20260504081105 71 183 2.0 17.0 0.00 0.00 0.00 42 1015.0
20260504080742 72 210 6.0 17.0 0.00 0.00 0.00 41 1015.2
20260504080656 72 69 4.0 17.0 0.00 0.00 0.00 41 1015.2
20260504080640 70 185 1.0 17.0 0.00 0.00 0.00 42 1015.1
20260504080627 70 201 0.0 17.0 0.00 0.00 0.00 42 1015.1
20260504080618 70 201 0.0 17.0 0.00 0.00 0.00 43 1015.1
20260504080351 70 235 4.0 17.0 0.00 0.00 0.00 43 1015.4
20260504080334 70 247 5.0 17.0 0.00 0.00 0.00 43 1015.1
20260504080319 70 229 2.0 17.0 0.00 0.00 0.00 43 1015.0
20260504080303 71 194 7.0 17.0 0.00 0.00 0.00 42 1015.0
20260504080250 71 217 12.0 17.0 0.00 0.00 0.00 42 1015.0
20260504080241 71 177 1.0 8.0 0.00 0.00 0.00 42 1015.0
20260504070400 71 225 3.0 7.0 0.00 0.00 0.00 43 1015.0
20260504070344 71 163 1.0 9.0 0.00 0.00 0.00 43 1015.0
20260504070110 70 213 0.0 9.0 0.00 0.00 0.00 44 1014.8
20260504050532 61 214 4.0 10.0 0.00 0.00 0.00 51 1015.2
20260504050516 61 230 0.0 10.0 0.00 0.00 0.00 51 1015.1
20260504050239 62 219 3.0 7.0 0.00 0.00 0.00 51 1015.0
20260504050013 62 237 6.0 7.0 0.00 0.00 0.00 51 1015.2
20260504045957 61 194 0.0 4.0 0.00 0.00 0.00 52 1015.2
20260504045513 62 204 1.0 4.0 0.00 0.00 0.00 51 1015.2
20260504045458 62 192 0.0 4.0 0.00 0.00 0.00 50 1015.1
20260504045441 62 203 3.0 4.0 0.00 0.00 0.00 50 1014.9
20260504045130 63 220 2.0 4.0 0.00 0.00 0.00 49 1014.9
20260504045030 63 195 0.0 3.0 0.00 0.00 0.00 48 1015.1
20260504044929 63 228 1.0 4.0 0.00 0.00 0.00 48 1015.1
20260504044907 63 172 0.0 4.0 0.00 0.00 0.00 49 1015.1
20260504044845 62 197 0.0 4.0 0.00 0.00 0.00 49 1014.9
20260504044525 62 198 0.0 4.0 0.00 0.00 0.00 49 1015.0
20260504044425 62 215 1.0 6.0 0.00 0.00 0.00 50 1015.1
20260504044324 61 223 2.0 6.0 0.00 0.00 0.00 50 1015.1
20260504044225 61 201 0.0 6.0 0.00 0.00 0.00 51 1014.9
20260504044124 61 190 0.0 6.0 0.00 0.00 0.00 51 1015.0
20260504044024 60 190 0.0 6.0 0.00 0.00 0.00 52 1015.1
20260504044003 60 185 0.0 7.0 0.00 0.00 0.00 52 1014.9
20260504043954 61 208 4.0 6.0 0.00 0.00 0.00 51 1015.0
20260504043939 60 179 0.0 6.0 0.00 0.00 0.00 52 1015.0
20260504043917 60 208 0.0 6.0 0.00 0.00 0.00 52 1015.0
20260504043652 60 213 2.0 6.0 0.00 0.00 0.00 52 1014.9
20260504043636 60 221 2.0 6.0 0.00 0.00 0.00 52 1014.8
20260504043621 60 204 1.0 4.0 0.00 0.00 0.00 52 1015.0
20260504043605 61 232 4.0 4.0 0.00 0.00 0.00 51 1015.1
20260504043543 61 204 0.0 3.0 0.00 0.00 0.00 51 1014.9
20260504043524 60 195 0.0 3.0 0.00 0.00 0.00 52 1015.0
20260504043509 60 190 0.0 4.0 0.00 0.00 0.00 52 1014.9
20260504043452 60 207 3.0 4.0 0.00 0.00 0.00 52 1015.1
20260504043215 60 185 0.0 7.0 0.00 0.00 0.00 52 1014.9
20260504042424 58 207 0.0 8.0 0.00 0.00 0.00 53 1015.4
20260504042408 58 203 0.0 8.0 0.00 0.00 0.00 54 1014.9
20260504042346 58 176 0.0 8.0 0.00 0.00 0.00 54 1015.1
20260504042024 57 203 0.0 9.0 0.00 0.00 0.00 55 1015.0
20260504041925 57 208 1.0 9.0 0.00 0.00 0.00 55 1014.8
20260504041824 57 227 3.0 9.0 0.00 0.00 0.00 55 1014.9
20260504041725 57 193 0.0 9.0 0.00 0.00 0.00 56 1014.9
20260504041624 56 231 6.0 9.0 0.00 0.00 0.00 56 1014.9
20260504041524 56 213 2.0 9.0 0.00 0.00 0.00 56 1015.0
20260504041423 56 210 2.0 9.0 0.00 0.00 0.00 57 1014.8
20260504041325 56 222 3.0 9.0 0.00 0.00 0.00 57 1014.9
20260504041225 56 240 6.0 9.0 0.00 0.00 0.00 57 1014.9
20260504041126 56 190 0.0 3.0 0.00 0.00 0.00 58 1014.9
20260504041102 55 206 1.0 3.0 0.00 0.00 0.00 58 1015.0
20260504041046 55 205 1.0 3.0 0.00 0.00 0.00 58 1015.0
20260504040725 55 208 2.0 3.0 0.00 0.00 0.00 58 1014.8
20260504040624 55 204 0.0 3.0 0.00 0.00 0.00 58 1014.8
20260504040524 55 200 0.0 3.0 0.00 0.00 0.00 58 1014.8
20260504040508 55 206 1.0 3.0 0.00 0.00 0.00 58 1014.8
20260504040453 55 201 0.0 3.0 0.00 0.00 0.00 58 1015.0
20260504040226 55 204 0.0 3.0 0.00 0.00 0.00 58 1014.6
20260504040124 55 226 2.0 3.0 0.00 0.00 0.00 58 1014.9
20260504040024 55 192 0.0 3.0 0.00 0.00 0.00 58 1014.8
20260504035924 55 201 0.0 3.0 0.00 0.00 0.00 58 1014.6
20260504035824 55 209 0.0 3.0 0.00 0.00 0.00 58 1014.7
20260504035724 55 206 1.0 3.0 0.00 0.00 0.00 58 1014.9
20260504035625 55 211 2.0 3.0 0.00 0.00 0.00 58 1015.0
20260504035523 55 212 1.0 2.0 0.00 0.00 0.00 59 1015.0
20260504035424 55 209 1.0 4.0 0.00 0.00 0.00 58 1014.9
20260504035323 55 206 0.0 4.0 0.00 0.00 0.00 59 1014.8
20260504035224 54 205 0.0 4.0 0.00 0.00 0.00 59 1014.7
20260504035119 54 219 2.0 4.0 0.00 0.00 0.00 59 1014.6
20260504035019 54 218 1.0 4.0 0.00 0.00 0.00 59 1014.7
20260504034918 54 211 1.0 4.0 0.00 0.00 0.00 59 1014.8
20260504034818 54 213 1.0 4.0 0.00 0.00 0.00 59 1014.8
20260504034752 54 219 1.0 4.0 0.00 0.00 0.00 59 1014.8
20260504034738 54 208 1.0 4.0 0.00 0.00 0.00 59 1014.9
20260504034419 54 204 0.0 2.0 0.00 0.00 0.00 61 1014.6
20260504034348 54 206 0.0 1.0 0.00 0.00 0.00 60 1014.8
20260504034326 54 206 0.0 1.0 0.00 0.00 0.00 61 1014.8
20260504034308 54 211 0.0 1.0 0.00 0.00 0.00 60 1014.9
20260504034032 54 197 0.0 1.0 0.00 0.00 0.00 60 1014.8
20260504034015 54 197 0.0 1.0 0.00 0.00 0.00 60 1014.6
20260504033953 54 196 0.0 2.0 0.00 0.00 0.00 61 1014.6
20260504033413 54 197 0.0 2.0 0.00 0.00 0.00 60 1014.8
20260504033313 54 197 0.0 3.0 0.00 0.00 0.00 60 1014.8
20260504033215 54 198 0.0 6.0 0.00 0.00 0.00 60 1014.9
20260504033148 54 199 0.0 6.0 0.00 0.00 0.00 59 1015.0
20260504033132 55 205 0.0 6.0 0.00 0.00 0.00 59 1014.7
20260504032811 55 212 1.0 6.0 0.00 0.00 0.00 58 1014.8
20260504032712 55 205 0.0 6.0 0.00 0.00 0.00 58 1014.7
20260504032611 55 197 0.0 6.0 0.00 0.00 0.00 57 1014.8
20260504032511 55 212 2.0 6.0 0.00 0.00 0.00 57 1014.7
20260504032444 55 214 2.0 6.0 0.00 0.00 0.00 56 1014.8
20260504032427 55 213 3.0 6.0 0.00 0.00 0.00 56 1014.6
20260504032404 55 205 1.0 4.0 0.00 0.00 0.00 57 1014.7
20260504032126 55 207 0.0 4.0 0.00 0.00 0.00 57 1014.8
20260504031808 55 210 0.0 4.0 0.00 0.00 0.00 56 1014.7
20260504031706 56 220 1.0 4.0 0.00 0.00 0.00 56 1014.5
20260504031607 56 208 1.0 4.0 0.00 0.00 0.00 56 1014.5
20260504031533 56 215 1.0 4.0 0.00 0.00 0.00 56 1014.5
20260504031516 56 211 1.0 4.0 0.00 0.00 0.00 56 1014.7
20260504031202 56 209 1.0 4.0 0.00 0.00 0.00 55 1014.6
20260504031150 56 212 1.0 4.0 0.00 0.00 0.00 55 1014.6
20260504031050 56 226 2.0 6.0 0.00 0.00 0.00 55 1014.6
20260504030948 56 209 1.0 6.0 0.00 0.00 0.00 55 1014.8
20260504030929 56 218 3.0 6.0 0.00 0.00 0.00 55 1014.7
20260504030914 56 209 3.0 6.0 0.00 0.00 0.00 55 1014.7
20260504030857 56 230 3.0 6.0 0.00 0.00 0.00 56 1014.6
20260504030543 56 203 2.0 6.0 0.00 0.00 0.00 55 1014.7
20260504030442 55 223 1.0 6.0 0.00 0.00 0.00 56 1014.3
20260504030342 55 222 2.0 6.0 0.00 0.00 0.00 56 1014.7
20260504030242 55 210 4.0 6.0 0.00 0.00 0.00 56 1014.7
20260504030150 55 231 3.0 6.0 0.00 0.00 0.00 56 1014.5
20260504030143 55 234 3.0 6.0 0.00 0.00 0.00 56 1014.5
20260504030041 55 214 1.0 4.0 0.00 0.00 0.00 56 1014.6
20260504025942 55 204 1.0 4.0 0.00 0.00 0.00 56 1014.3
20260504025843 55 203 1.0 4.0 0.00 0.00 0.00 56 1014.6
20260504025744 55 215 1.0 4.0 0.00 0.00 0.00 56 1014.6
20260504025643 55 206 1.0 4.0 0.00 0.00 0.00 57 1014.7
20260504025542 55 200 0.0 4.0 0.00 0.00 0.00 57 1014.2
20260504025442 55 200 0.0 6.0 0.00 0.00 0.00 57 1014.8
20260504025342 55 205 0.0 6.0 0.00 0.00 0.00 57 1014.3
20260504025242 55 203 1.0 6.0 0.00 0.00 0.00 57 1014.5
20260504025150 56 198 0.0 6.0 0.00 0.00 0.00 57 1014.5
20260504025143 56 199 0.0 6.0 0.00 0.00 0.00 57 1014.5
20260504025120 56 199 0.0 6.0 0.00 0.00 0.00 56 1014.3
20260504025105 56 196 0.0 6.0 0.00 0.00 0.00 56 1014.5
20260504024742 56 200 0.0 6.0 0.00 0.00 0.00 56 1014.6
20260504024642 56 199 0.0 6.0 0.00 0.00 0.00 56 1014.3
20260504024542 56 214 1.0 6.0 0.00 0.00 0.00 56 1014.5
20260504024442 56 228 4.0 6.0 0.00 0.00 0.00 55 1014.5
20260504024430 56 211 1.0 6.0 0.00 0.00 0.00 56 1014.3
20260504024421 56 199 0.0 6.0 0.00 0.00 0.00 56 1014.5
20260504024406 56 216 2.0 6.0 0.00 0.00 0.00 56 1014.3
20260504024137 56 214 2.0 6.0 0.00 0.00 0.00 56 1014.8
20260504024038 56 205 2.0 6.0 0.00 0.00 0.00 56 1014.2
20260504023938 56 210 2.0 6.0 0.00 0.00 0.00 55 1014.2
20260504023837 56 192 0.0 6.0 0.00 0.00 0.00 55 1014.2
20260504023737 56 205 0.0 6.0 0.00 0.00 0.00 56 1014.3
20260504023719 56 206 0.0 6.0 0.00 0.00 0.00 56 1014.7
20260504023713 56 209 0.0 6.0 0.00 0.00 0.00 56 1014.3
20260504023657 56 209 1.0 6.0 0.00 0.00 0.00 56 1014.5
20260504023336 56 203 1.0 4.0 0.00 0.00 0.00 56 1014.2
20260504023236 56 198 0.0 4.0 0.00 0.00 0.00 56 1014.6
20260504023221 56 190 1.0 4.0 0.00 0.00 0.00 56 1014.6
20260504023214 56 199 0.0 4.0 0.00 0.00 0.00 57 1014.5
20260504023156 56 169 0.0 4.0 0.00 0.00 0.00 57 1014.7
20260504022835 55 212 2.0 4.0 0.00 0.00 0.00 57 1014.5
20260504022735 55 221 2.0 4.0 0.00 0.00 0.00 58 1014.6
20260504022643 55 198 1.0 2.0 0.00 0.00 0.00 58 1014.6
20260504022634 55 198 1.0 2.0 0.00 0.00 0.00 58 1014.2
20260504022535 55 192 0.0 1.0 0.00 0.00 0.00 58 1014.5
20260504022436 55 196 0.0 1.0 0.00 0.00 0.00 58 1014.3
20260504022336 55 186 0.0 1.0 0.00 0.00 0.00 58 1014.1
20260504022235 55 186 0.0 1.0 0.00 0.00 0.00 59 1014.6
20260504022141 55 186 0.0 1.0 0.00 0.00 0.00 59 1014.6
20260504022120 55 185 0.0 1.0 0.00 0.00 0.00 59 1014.6
20260504022019 55 181 0.0 1.0 0.00 0.00 0.00 59 1014.3
20260504021919 55 186 0.0 1.0 0.00 0.00 0.00 58 1014.6
20260504021807 55 181 0.0 1.0 0.00 0.00 0.00 58 1014.5
20260504021707 55 182 0.0 1.0 0.00 0.00 0.00 58 1014.3
20260504021608 55 182 0.0 1.0 0.00 0.00 0.00 58 1014.6
20260504021507 55 182 0.0 1.0 0.00 0.00 0.00 58 1014.5
20260504021456 56 185 0.0 2.0 0.00 0.00 0.00 57 1014.2
20260504021447 55 181 0.0 1.0 0.00 0.00 0.00 58 1014.3
20260504021432 55 185 0.0 1.0 0.00 0.00 0.00 58 1014.3
20260504021416 55 185 0.0 2.0 0.00 0.00 0.00 58 1014.6
20260504021350 55 182 0.0 2.0 0.00 0.00 0.00 58 1014.3
20260504020853 55 182 0.0 2.0 0.00 0.00 0.00 58 1014.6
20260504020839 56 184 0.0 2.0 0.00 0.00 0.00 58 1014.3
20260504020600 56 186 1.0 2.0 0.00 0.00 0.00 57 1014.2
20260504020447 56 182 0.0 2.0 0.00 0.00 0.00 57 1014.6
20260504020424 56 192 0.0 2.0 0.00 0.00 0.00 57 1014.5
20260504020408 56 188 0.0 2.0 0.00 0.00 0.00 57 1014.3
20260504020126 56 186 0.0 2.0 0.00 0.00 0.00 57 1014.6
20260504020115 56 184 0.0 2.0 0.00 0.00 0.00 57 1014.6
20260504020059 56 185 1.0 2.0 0.00 0.00 0.00 57 1014.6
20260504020042 56 183 1.0 2.0 0.00 0.00 0.00 57 1014.5
20260504020027 56 186 0.0 2.0 0.00 0.00 0.00 57 1014.3
20260504015753 56 186 0.0 2.0 0.00 0.00 0.00 57 1014.6
20260504015745 56 185 0.0 2.0 0.00 0.00 0.00 57 1014.6
20260504015508 56 181 1.0 2.0 0.00 0.00 0.00 57 1014.6
20260504015148 56 182 0.0 2.0 0.00 0.00 0.00 57 1014.5
20260504015107 56 180 1.0 2.0 0.00 0.00 0.00 57 1014.5
20260504015048 56 182 0.0 2.0 0.00 0.00 0.00 57 1014.5
20260504014946 56 181 0.0 2.0 0.00 0.00 0.00 57 1014.5
20260504014903 56 186 0.0 2.0 0.00 0.00 0.00 57 1014.5
20260504014858 56 180 0.0 2.0 0.00 0.00 0.00 57 1014.6
20260504014841 56 181 0.0 2.0 0.00 0.00 0.00 57 1014.6
20260504014825 56 183 0.0 2.0 0.00 0.00 0.00 57 1014.5
20260504014547 56 187 0.0 2.0 0.00 0.00 0.00 57 1014.5
20260504014520 56 173 1.0 2.0 0.00 0.00 0.00 57 1014.5
20260504014504 56 178 0.0 2.0 0.00 0.00 0.00 57 1014.2
20260504014228 56 183 0.0 2.0 0.00 0.00 0.00 57 1014.6
20260504014211 56 186 0.0 2.0 0.00 0.00 0.00 57 1014.3
20260504014203 56 187 1.0 2.0 0.00 0.00 0.00 57 1014.3
20260504013844 56 176 0.0 2.0 0.00 0.00 0.00 57 1014.5
20260504013742 56 182 0.0 2.0 0.00 0.00 0.00 57 1014.5
20260504013643 56 191 0.0 2.0 0.00 0.00 0.00 57 1014.6
20260504013604 56 179 0.0 2.0 0.00 0.00 0.00 57 1014.7
20260504013542 56 177 0.0 2.0 0.00 0.00 0.00 57 1014.7
20260504013517 56 188 0.0 2.0 0.00 0.00 0.00 57 1014.7
20260504013502 56 190 1.0 2.0 0.00 0.00 0.00 57 1014.6
20260504013141 56 186 0.0 2.0 0.00 0.00 0.00 57 1014.5
20260504013109 56 194 1.0 2.0 0.00 0.00 0.00 57 1014.3
20260504013053 56 170 1.0 2.0 0.00 0.00 0.00 57 1014.5
20260504013037 56 181 0.0 2.0 0.00 0.00 0.00 57 1014.5
20260504012801 56 179 0.0 2.0 0.00 0.00 0.00 57 1014.3
20260504012747 56 182 0.0 2.0 0.00 0.00 0.00 57 1014.3
20260504012435 56 180 0.0 2.0 0.00 0.00 0.00 57 1014.5
20260504012336 56 191 0.0 2.0 0.00 0.00 0.00 57 1014.8
20260504012230 56 186 0.0 2.0 0.00 0.00 0.00 57 1014.6
20260504012105 56 179 0.0 2.0 0.00 0.00 0.00 57 1014.5
20260504012050 56 175 0.0 2.0 0.00 0.00 0.00 57 1014.5
20260504012006 56 186 0.0 2.0 0.00 0.00 0.00 57 1014.5
20260504011906 56 186 1.0 2.0 0.00 0.00 0.00 57 1014.3
20260504011844 56 182 0.0 1.0 0.00 0.00 0.00 58 1014.6
20260504011836 56 185 0.0 2.0 0.00 0.00 0.00 57 1014.3
20260504011820 56 175 1.0 2.0 0.00 0.00 0.00 57 1014.7
20260504011753 56 172 0.0 2.0 0.00 0.00 0.00 57 1014.6
20260504011743 56 182 0.0 2.0 0.00 0.00 0.00 57 1014.3
20260504011726 56 175 0.0 1.0 0.00 0.00 0.00 57 1014.5
20260504011230 56 182 0.0 1.0 0.00 0.00 0.00 57 1014.5
20260504011215 56 179 0.0 1.0 0.00 0.00 0.00 57 1014.5
20260504011205 56 186 0.0 1.0 0.00 0.00 0.00 58 1014.7
20260504011150 56 182 0.0 1.0 0.00 0.00 0.00 58 1014.8
20260504011134 56 184 0.0 1.0 0.00 0.00 0.00 58 1014.5
20260504011118 56 182 0.0 1.0 0.00 0.00 0.00 58 1014.7
20260504011100 56 182 0.0 1.0 0.00 0.00 0.00 58 1014.6
20260504010352 56 188 1.0 2.0 0.00 0.00 0.00 58 1014.5
20260504010336 56 182 0.0 2.0 0.00 0.00 0.00 58 1014.5
20260504010108 56 182 0.0 2.0 0.00 0.00 0.00 58 1014.3
20260504005956 56 182 1.0 2.0 0.00 0.00 0.00 58 1014.7
20260504005848 56 181 0.0 2.0 0.00 0.00 0.00 57 1014.5
20260504005748 57 178 0.0 2.0 0.00 0.00 0.00 57 1014.5
20260504005647 57 180 0.0 2.0 0.00 0.00 0.00 57 1014.6
20260504005549 57 182 0.0 2.0 0.00 0.00 0.00 57 1014.7
20260504005447 57 184 0.0 2.0 0.00 0.00 0.00 57 1014.6
20260504005347 57 200 0.0 1.0 0.00 0.00 0.00 57 1014.7
20260504005327 57 189 0.0 1.0 0.00 0.00 0.00 57 1014.8
20260504005311 57 190 0.0 1.0 0.00 0.00 0.00 57 1014.6
20260504005043 57 184 0.0 0.0 0.00 0.00 0.00 57 1014.6
20260504004609 56 184 0.0 3.0 0.00 0.00 0.00 57 1014.7
20260504004554 56 219 1.0 3.0 0.00 0.00 0.00 57 1014.8
20260504004537 56 207 1.0 3.0 0.00 0.00 0.00 57 1014.5
20260504004530 56 188 0.0 3.0 0.00 0.00 0.00 57 1014.5
20260504004515 56 201 1.0 2.0 0.00 0.00 0.00 57 1014.5
20260504004238 56 179 0.0 1.0 0.00 0.00 0.00 57 1014.5
20260504003752 56 181 0.0 1.0 0.00 0.00 0.00 58 1014.7
20260504003735 56 185 0.0 1.0 0.00 0.00 0.00 58 1014.7
20260504003458 56 187 0.0 2.0 0.00 0.00 0.00 58 1014.6
20260504003220 56 180 0.0 2.0 0.00 0.00 0.00 58 1014.8
20260504003213 56 181 0.0 2.0 0.00 0.00 0.00 58 1014.8
20260504002938 56 182 0.0 2.0 0.00 0.00 0.00 58 1014.8
20260504002921 56 181 0.0 2.0 0.00 0.00 0.00 58 1014.8
20260504002645 56 185 0.0 2.0 0.00 0.00 0.00 58 1014.6
20260504002330 57 184 0.0 2.0 0.00 0.00 0.00 58 1014.5
20260504002230 57 177 0.0 1.0 0.00 0.00 0.00 57 1014.8
20260504002129 57 168 0.0 1.0 0.00 0.00 0.00 57 1014.6
20260504002029 57 176 0.0 1.0 0.00 0.00 0.00 57 1015.0